Wind_Speed
12 12 12 12 11 11 11 11 11 10 10 10 10 9 9 9 9 9 9 9 9 10 10 10 11 11 10 10 11 10 9 10 12 11 14 13 10 13 12 10 13 15 19 16 14 13 12 13 12 12 11 8 7 7 4 5 4 4 4 3 5 6 3 1 4 2 7 11 10 10 11 12 11 10 8 9 11 11 9 9 10 11 14 18 23 27 27 24
12 12 12 12 12 12 11 11 11 11 11 10 10 10 9 9 9 9 9 9 9 9 10 10 10 10 10 10 10 9 9 12 15 16 19 17 12 14 17 13 13 19 21 17 16 15 13 11 11 11 9 7 6 5 3 4 4 4 5 3 5 6 6 4 6 7 8 11 11 12 13 12 11 12 10 10 12 12 11 11 13 16 18 21 25 27 26 24
13 13 13 13 13 12 12 11 11 12 11 11 11 10 10 9 9 9 9 9 8 8 9 10 10 10 10 9 9 8 10 14 15 13 11 15 16 14 15 15 16 20 22 16 15 15 12 10 11 11 9 7 6 5 5 4 3 4 4 2 4 5 7 3 7 11 10 14 13 11 13 12 11 11 8 11 14 12 12 13 15 18 20 22 23 25 25 23
13 13 13 14 14 13 12 12 12 12 12 12 11 11 10 9 9 9 9 8 8 8 9 9 10 9 9 8 6 7 10 13 7 1 4 7 16 16 15 16 17 21 21 15 13 14 12 9 10 10 10 8 6 6 6 4 3 2 3 1 3 5 7 3 9 13 13 15 13 11 13 13 11 9 8 11 12 11 11 13 16 19 22 23 21 23 24 22
14 13 13 13 14 13 13 12 12 12 12 12 11 11 10 10 9 9 9 9 8 8 8 9 9 8 8 7 5 6 9 7 2 7 5 2 10 18 17 17 18 21 20 15 13 14 12 10 10 10 10 8 6 7 6 5 3 2 4 1 2 5 7 7 9 13 12 9 12 14 13 12 11 9 9 10 8 8 10 13 17 20 22 23 22 22 22 21
15 15 14 14 13 13 13 13 13 13 13 12 12 11 10 10 10 10 9 9 8 7 8 8 8 7 6 5 4 6 9 3 5 5 2 5 8 19 18 18 19 21 20 16 14 13 12 11 10 10 9 8 7 7 5 5 3 1 2 2 3 5 7 10 10 12 14 11 11 14 12 11 11 10 8 8 8 8 11 14 18 20 21 23 23 21 20 18
17 17 16 15 13 13 13 13 13 13 13 13 12 11 10 10 9 9 9 10 8 7 7 8 8 7 4 5 6 7 10 4 5 3 4 4 9 19 18 18 20 21 19 16 15 13 11 11 11 9 9 8 7 7 4 4 4 1 3 4 6 7 7 8 9 7 10 12 11 11 12 12 12 10 8 8 10 10 12 16 18 20 22 22 21 19 19 18
17 17 17 17 15 14 14 14 14 13 14 13 12 11 10 10 10 9 9 10 8 7 7 8 9 5 3 5 8 8 9 2 7 3 5 0 11 17 17 18 21 22 19 17 15 12 10 12 12 10 9 7 5 6 3 4 5 2 5 5 5 8 8 6 7 7 5 7 9 12 12 12 11 10 9 11 11 13 14 17 19 20 20 19 19 19 18 17
17 18 18 17 17 16 16 15 14 14 14 14 13 11 10 9 10 9 9 9 8 8 7 8 7 2 1 4 9 7 2 5 7 3 3 5 15 18 18 18 22 21 18 17 15 13 10 10 12 11 9 5 4 6 4 4 3 7 6 6 8 8 9 5 5 9 7 5 6 12 13 11 12 10 9 11 12 14 16 18 19 19 19 17 17 18 17 15
18 19 19 19 18 17 16 16 15 15 14 14 13 12 11 10 10 9 9 9 8 8 7 6 2 2 3 6 10 6 5 7 4 4 3 11 18 19 19 19 21 20 17 17 15 14 11 9 11 9 8 5 4 6 5 3 2 11 8 5 9 9 9 6 5 6 5 5 3 6 13 13 11 9 8 11 13 15 16 18 19 18 18 17 16 16 15 15
19 19 20 20 19 18 17 17 16 15 15 15 14 12 11 10 10 9 8 7 7 7 7 4 2 3 7 9 10 3 6 5 2 5 7 15 17 18 20 18 19 20 16 15 15 14 12 10 9 7 4 3 5 7 6 3 3 11 10 6 9 10 9 8 6 4 2 5 3 1 11 12 8 7 9 13 14 14 17 19 19 17 16 16 16 15 13 14
19 20 20 20 20 19 18 17 17 16 16 15 14 12 10 10 8 7 6 6 6 6 5 1 4 2 8 10 9 3 5 2 1 5 10 15 15 16 17 15 17 18 15 14 13 13 13 10 9 10 4 2 5 6 4 3 4 10 10 7 9 8 7 8 7 4 2 5 1 4 8 9 5 9 13 14 14 15 18 18 18 17 15 15 15 14 12 13
18 20 20 21 20 19 18 17 17 16 16 15 13 11 9 7 6 4 5 5 5 5 2 3 4 4 9 7 2 2 3 1 2 6 11 13 13 14 13 13 15 16 15 13 12 12 11 9 10 13 7 4 6 3 0 3 6 9 8 7 8 5 5 6 6 6 4 2 3 5 4 7 5 11 15 14 15 17 17 17 16 15 14 14 14 13 12 13
19 20 21 21 20 20 18 17 17 16 16 14 11 9 6 4 3 3 3 3 3 2 2 4 2 6 9 4 3 2 2 1 4 9 12 12 12 11 11 12 14 14 12 11 10 9 8 8 10 11 9 7 5 2 4 6 6 7 6 6 6 5 6 8 7 9 7 4 4 2 2 6 6 12 14 13 15 16 17 17 16 15 14 14 13 13 13 13
19 20 21 21 20 19 18 17 16 15 14 12 8 6 3 1 1 1 3 1 1 2 3 1 4 6 9 5 3 3 5 5 8 11 11 12 12 10 11 13 13 12 11 10 9 8 7 9 9 8 9 8 6 5 8 7 6 7 6 6 6 4 7 10 9 8 7 6 6 1 2 4 5 11 13 13 15 15 16 16 16 16 15 14 13 13 13 13
19 20 21 21 21 19 18 16 15 14 13 9 6 4 1 0 1 2 2 2 4 4 3 3 7 8 8 1 5 5 7 8 11 11 10 12 11 11 13 12 11 11 10 9 7 8 8 9 9 8 9 8 8 7 7 6 7 8 7 6 8 6 6 9 9 7 5 7 9 5 3 3 4 9 12 12 14 15 15 16 16 16 15 14 13 12 12 12
19 21 22 22 21 19 17 16 14 13 11 7 4 1 1 1 2 3 1 3 3 2 5 7 6 7 7 1 3 8 8 9 12 12 10 10 10 12 14 11 10 11 11 9 6 8 9 9 8 8 9 9 9 8 7 8 7 7 8 7 7 8 7 8 8 9 8 7 10 8 4 4 5 8 11 12 13 14 15 16 17 15 14 14 12 13 13 12
20 22 22 22 21 19 17 15 13 11 8 3 1 1 1 2 2 2 2 4 4 6 8 8 6 6 5 5 5 8 9 10 13 12 10 8 8 12 13 10 10 11 11 9 8 9 9 8 8 7 8 8 9 10 8 8 8 8 9 6 4 7 8 8 9 10 13 9 10 12 7 6 7 9 12 13 13 14 14 15 16 16 15 14 13 13 13 13
20 22 23 22 21 18 16 14 11 9 5 1 2 2 2 1 1 4 8 7 7 7 3 4 6 3 1 5 4 7 10 11 12 12 11 9 9 13 12 9 10 12 10 9 10 11 9 8 9 8 8 9 11 12 9 7 9 9 9 8 6 6 6 6 9 12 16 11 10 14 11 10 9 10 12 15 13 13 14 15 14 14 14 13 13 12 13 13
20 22 23 22 21 18 15 12 10 7 3 2 1 3 3 3 3 5 9 10 9 9 5 3 7 4 1 5 7 8 9 11 11 11 11 11 12 13 11 9 10 11 10 10 10 11 10 9 9 10 11 13 14 14 9 6 8 9 9 10 8 7 4 5 10 13 14 10 10 13 12 13 10 9 11 14 14 14 14 16 15 14 14 13 13 14 13 13
20 22 23 22 21 17 14 11 9 7 5 4 5 8 4 5 4 2 2 9 12 10 8 6 6 6 3 1 6 8 9 10 11 11 12 12 12 11 9 10 11 9 11 12 11 10 10 10 11 13 14 13 16 14 8 8 10 9 8 9 7 8 5 4 7 13 12 8 9 13 12 12 11 10 7 4 7 13 15 16 15 16 15 12 13 15 14 12
20 23 23 22 21 16 13 10 9 7 6 6 8 11 5 9 7 7 7 6 8 8 6 6 6 6 3 3 3 7 10 11 11 12 12 12 12 10 9 11 11 9 12 12 10 9 10 10 13 15 14 13 15 11 7 11 12 7 6 7 6 7 8 2 4 9 9 6 7 13 11 8 10 9 4 1 4 8 10 14 16 16 15 14 14 14 14 13
21 23 23 22 20 16 11 9 9 7 7 9 11 11 6 7 7 8 7 8 3 6 5 6 8 6 8 8 7 9 11 11 11 13 13 12 12 10 9 11 11 11 13 12 11 9 9 11 13 14 14 12 10 8 7 10 10 7 6 6 6 6 8 4 4 6 4 3 5 10 8 6 8 8 6 8 7 4 6 4 11 16 14 14 15 13 14 15
22 23 23 22 19 14 10 9 8 7 10 12 14 11 9 7 8 10 7 9 4 5 3 4 6 7 8 6 9 14 12 9 11 12 14 14 11 8 8 11 12 11 12 14 14 11 9 12 13 14 14 10 8 10 11 9 8 9 8 7 5 3 1 0 6 9 6 4 5 9 6 4 7 8 7 8 5 3 5 7 7 14 14 13 15 14 14 15
22 23 23 21 17 12 10 8 7 8 10 12 14 12 9 7 8 9 7 8 3 5 4 6 5 6 5 4 9 14 11 9 10 11 15 15 11 8 7 8 9 11 13 15 14 11 11 12 13 14 13 10 10 13 13 10 9 9 10 9 3 9 4 2 6 9 7 5 7 11 6 3 6 7 8 8 6 7 5 5 10 14 14 13 14 13 14 14
23 23 22 19 15 10 7 4 5 7 9 12 9 5 5 7 7 7 7 7 4 5 6 8 5 5 6 7 11 11 10 8 9 11 14 15 13 8 7 7 7 10 12 12 10 7 9 10 11 12 12 11 11 12 12 12 10 8 8 8 8 14 6 3 7 7 4 2 8 13 7 2 6 8 9 10 10 10 8 9 12 13 13 13 13 13 13 14
23 23 22 18 12 6 4 3 3 6 8 6 3 3 5 6 6 6 7 5 3 3 4 6 4 4 6 9 13 9 5 7 11 12 12 13 12 8 9 9 8 9 8 9 7 7 10 10 10 10 10 11 11 10 10 12 11 3 6 6 9 14 11 9 10 7 3 1 5 10 8 2 5 8 9 11 12 11 11 12 12 11 12 14 14 14 15 14
23 22 20 16 10 6 8 8 9 10 6 3 2 6 6 6 6 6 7 1 4 2 3 5 4 3 4 10 15 9 5 9 9 10 12 13 12 9 9 9 10 11 10 10 8 9 11 11 11 12 11 10 10 10 9 11 11 1 5 2 3 7 9 10 10 5 4 4 3 6 9 4 5 6 8 11 12 11 12 13 12 12 13 14 15 15 15 15
23 21 18 14 8 7 10 10 11 12 7 6 6 8 7 7 6 6 6 1 3 2 2 4 5 7 7 9 13 9 6 8 7 9 13 13 11 9 8 7 12 12 10 12 10 8 9 6 8 13 13 10 10 12 10 10 10 1 3 3 3 5 8 7 8 5 6 6 4 9 11 5 3 7 8 9 9 10 10 11 11 12 12 14 15 15 15 14
22 19 16 10 5 4 7 10 14 14 9 7 8 9 9 8 5 6 4 1 3 4 3 3 5 8 10 10 10 9 9 7 5 10 11 10 11 10 7 6 10 9 8 12 13 8 10 7 7 9 11 9 9 14 12 10 9 4 1 6 5 6 6 5 7 5 5 7 6 12 15 8 3 6 9 8 7 8 8 7 9 9 10 14 15 14 15 14
20 16 13 8 4 4 6 6 7 8 8 9 9 10 9 5 6 6 1 2 2 5 7 6 5 9 12 13 10 9 12 7 9 10 9 8 10 10 7 6 8 8 6 9 13 9 10 9 7 7 10 10 10 15 10 7 8 7 3 5 4 4 4 5 6 5 6 6 4 8 11 8 5 4 8 7 7 11 11 11 13 12 12 14 15 14 14 14
17 13 12 10 8 11 11 5 4 3 6 8 9 9 6 5 6 2 5 3 4 4 6 6 7 9 12 12 9 9 10 8 9 10 9 9 9 9 9 8 7 8 7 9 11 9 8 8 9 9 11 10 10 12 9 6 8 9 5 5 5 5 5 5 6 6 6 3 3 5 6 5 3 5 10 10 10 14 15 13 17 18 16 16 14 14 13 12
13 11 10 10 10 13 14 10 8 7 8 10 9 7 6 5 3 2 2 3 2 2 2 3 7 10 10 9 7 8 8 7 9 10 10 10 9 9 11 10 10 9 6 9 11 9 7 8 12 13 10 10 11 9 7 7 9 10 7 6 6 5 5 6 6 6 6 5 7 5 4 4 1 6 11 13 11 13 15 14 15 18 19 15 13 13 14 13
10 9 9 9 11 13 13 12 11 9 9 11 8 6 7 5 2 0 1 4 5 3 3 3 6 8 7 6 4 7 8 7 9 10 9 10 9 9 10 12 15 12 6 8 9 9 9 7 11 13 9 11 13 12 8 6 9 11 9 7 7 6 4 4 4 4 6 4 9 7 3 3 2 3 7 12 11 10 11 12 13 13 14 13 12 13 14 14
8 7 6 8 10 12 12 12 11 9 9 8 7 6 6 3 3 0 2 6 3 5 6 4 5 6 6 5 6 8 5 3 9 10 8 9 8 8 9 10 14 12 8 8 7 9 12 9 11 16 12 12 16 15 12 9 8 9 9 8 7 8 6 5 6 3 1 2 4 6 0 1 1 2 5 10 10 10 11 11 13 13 13 12 11 11 11 12
4 3 5 8 8 7 8 8 8 9 8 7 6 5 1 3 4 3 3 3 2 3 6 6 6 6 6 5 7 9 4 3 9 9 6 8 8 7 8 7 10 11 10 7 5 8 11 7 9 16 15 14 15 15 14 12 7 6 9 9 8 9 8 7 8 4 3 2 3 5 1 1 3 1 4 9 9 9 11 12 13 14 16 14 10 9 9 10
4 6 6 8 6 4 6 6 7 9 8 6 6 4 1 2 4 4 2 2 4 1 4 5 4 5 6 5 5 8 9 7 8 8 6 8 8 8 9 9 10 13 12 6 4 6 8 6 9 14 14 13 13 14 16 14 11 6 7 8 8 9 9 5 5 6 5 5 4 8 7 5 4 2 5 10 10 11 12 12 13 13 15 15 11 10 10 12
6 8 7 4 3 4 6 7 8 8 7 6 4 3 2 2 4 4 3 1 2 4 6 2 2 4 6 6 6 8 8 6 7 8 6 6 5 5 8 8 8 10 9 5 4 5 8 7 8 12 12 12 12 12 13 14 16 12 5 5 8 8 7 6 5 5 5 4 3 9 12 7 4 3 9 12 11 13 14 13 14 15 15 14 13 13 12 12
9 9 5 5 4 4 6 6 8 7 6 6 3 1 1 3 5 4 4 2 2 4 5 3 1 3 5 4 6 8 8 5 5 7 6 6 5 4 7 7 7 7 8 8 7 5 7 7 4 9 11 11 11 10 10 11 14 14 9 6 7 6 6 6 5 5 5 4 3 5 8 4 2 3 10 13 12 13 14 14 14 15 15 14 14 14 13 11
9 7 3 8 6 5 6 6 7 6 6 5 1 1 0 2 3 5 4 4 3 3 4 5 2 2 4 4 5 7 7 6 6 5 4 5 6 6 8 7 7 9 9 11 10 5 5 7 3 6 11 11 9 10 11 10 11 12 10 8 8 7 7 6 5 6 6 5 4 3 2 1 0 1 3 7 11 12 13 14 13 13 14 14 13 13 13 12
9 6 4 8 6 5 5 6 6 5 5 3 1 1 2 3 2 3 3 2 2 1 4 6 5 3 4 4 3 5 5 7 6 3 3 5 6 5 5 4 5 7 8 9 10 6 6 7 6 5 8 9 10 11 13 13 11 11 10 9 9 8 8 7 6 7 7 6 5 2 1 1 1 1 1 2 4 7 9 10 10 10 12 13 12 13 14 13
8 4 5 7 6 4 5 6 4 5 3 0 1 2 3 3 5 1 1 2 1 1 2 4 4 4 4 3 2 5 6 6 4 5 4 6 4 3 5 3 5 5 5 7 9 8 6 6 8 6 5 8 10 12 14 15 13 11 11 10 10 9 8 8 6 6 6 7 6 2 2 1 1 2 4 6 6 7 8 9 8 8 10 12 12 12 13 13
7 2 6 7 5 5 7 5 4 5 1 1 1 0 1 3 4 2 2 2 2 1 1 2 3 4 3 2 4 6 6 3 1 4 5 6 0 7 5 4 5 7 7 7 9 9 5 5 8 7 5 7 10 11 14 15 15 12 10 11 11 10 10 9 7 5 5 6 7 4 2 2 1 2 2 6 9 9 9 8 8 7 7 10 12 11 10 11
5 1 6 7 6 6 7 4 3 3 2 2 4 3 1 3 4 5 4 5 4 4 2 2 2 3 2 2 5 6 2 2 3 2 5 7 3 4 3 3 4 8 5 1 2 3 4 6 7 6 6 7 11 9 10 12 12 9 8 11 13 14 14 12 9 6 6 7 7 6 1 3 4 4 4 5 7 8 7 7 8 7 6 8 10 9 9 11
4 2 3 6 7 8 6 4 4 2 2 3 4 1 2 1 3 5 6 4 4 5 4 2 2 3 3 2 4 5 2 3 4 2 3 6 7 5 4 2 4 6 2 8 8 4 4 6 6 7 8 8 8 5 4 8 9 8 10 13 14 17 17 12 8 7 7 6 7 5 1 4 5 6 6 7 7 8 7 7 9 7 6 8 9 9 9 9
3 3 3 5 7 7 5 3 4 4 2 3 3 2 4 2 4 0 4 3 3 4 3 2 2 3 3 3 4 5 5 5 4 3 4 5 7 6 5 4 4 2 7 7 6 7 5 6 8 9 9 7 3 3 5 8 10 12 14 14 13 16 16 12 7 7 7 6 6 4 3 6 7 7 7 7 7 8 7 8 10 8 7 8 9 9 9 7
4 3 3 3 4 5 5 5 5 4 1 1 1 1 4 4 3 3 1 2 2 4 3 2 3 3 2 3 6 5 5 5 4 3 5 4 3 5 6 6 5 4 4 2 5 5 5 7 10 13 12 11 10 7 9 11 11 14 16 16 16 15 15 14 11 8 7 7 6 2 4 7 8 7 8 7 7 8 8 8 8 7 7 9 9 9 9 8
4 3 1 1 2 4 4 3 3 4 3 2 2 2 4 4 1 1 0 0 1 3 3 1 2 3 2 3 5 3 3 4 4 3 3 2 3 4 7 8 6 8 6 7 4 3 6 7 9 13 13 14 14 12 10 11 12 13 15 17 16 13 12 13 13 10 8 8 5 2 3 2 5 7 9 7 6 8 9 8 7 6 7 8 10 10 9 9
5 3 2 3 4 3 1 1 2 6 3 2 2 3 4 4 1 1 1 2 1 2 3 2 2 2 1 1 3 2 1 3 4 2 3 5 6 5 4 5 4 4 7 9 5 2 5 6 8 11 12 14 15 14 12 12 12 13 15 16 16 15 15 15 14 12 11 10 7 4 5 2 2 6 8 8 7 8 9 8 8 8 8 8 9 11 10 9
3 3 1 4 4 3 2 2 4 5 2 1 2 2 2 3 1 2 0 3 2 1 2 2 2 4 4 2 1 1 1 3 6 4 5 7 6 5 3 2 2 5 7 6 4 3 3 5 7 9 9 11 13 13 14 13 13 14 14 10 8 12 17 18 15 12 12 12 8 5 7 4 4 5 8 9 8 8 8 9 8 9 9 9 8 10 9 8
6 4 2 4 3 2 4 4 4 4 3 3 3 3 2 2 1 1 1 3 3 2 2 2 1 2 2 2 2 2 2 2 5 3 4 6 4 4 3 2 3 6 7 5 2 4 4 5 6 7 8 8 10 12 14 14 13 13 7 2 5 9 10 10 8 6 7 10 10 6 4 5 5 6 8 9 10 10 9 9 9 8 9 9 9 10 10 9
7 3 2 4 3 3 4 4 4 4 2 2 1 1 1 2 2 0 0 1 2 1 2 3 1 2 2 3 4 4 4 2 2 2 2 4 4 4 5 5 5 5 6 5 3 5 6 5 5 5 6 7 9 11 11 11 11 8 1 4 5 6 8 6 1 3 6 4 7 6 3 8 9 8 9 10 10 11 10 8 8 9 9 9 10 10 10 10
Wind_Direction
344 343 341 341 339 337 336 334 332 330 330 329 330 328 325 322 318 317 312 308 308 305 306 310 310 310 312 313 315 326 338 313 287 253 238 246 235 231 234 219 211 182 166 184 200 199 202 208 213 211 218 216 220 240 231 231 250 273 282 307 316 321 352 280 241 186 128 132 140 171 158 135 140 142 147 146 129 127 133 128 126 130 129 126 128 135 140 143
347 344 341 340 339 337 335 333 331 329 328 328 328 326 325 321 318 315 309 306 302 302 305 307 309 310 312 315 323 342 337 300 274 258 247 244 233 224 228 221 203 181 173 193 202 200 205 203 204 204 217 219 209 214 210 240 236 257 286 346 331 341 2 286 199 154 136 139 156 171 150 139 145 143 153 145 130 136 137 127 123 121 120 122 132 139 142 145
350 347 344 342 340 338 334 331 330 328 327 326 326 325 323 321 319 314 308 306 301 303 304 306 311 308 313 322 334 356 327 294 269 258 247 232 226 223 220 209 197 183 179 197 202 203 214 207 202 203 219 224 206 201 200 222 229 267 296 1 329 10 29 4 143 146 146 142 159 168 146 143 145 142 153 140 135 143 139 132 128 126 129 133 138 142 144 149
349 346 345 344 342 339 334 331 329 327 326 325 325 323 321 320 317 314 311 307 304 305 304 309 312 310 321 329 348 5 310 282 264 133 108 206 217 215 211 199 192 186 187 203 205 209 221 214 209 210 227 231 207 217 226 209 201 310 6 33 318 46 70 81 123 137 147 148 158 159 142 140 144 146 149 141 140 141 139 142 140 138 139 140 143 145 148 151
349 346 345 343 342 337 332 331 329 327 326 324 324 321 319 317 314 313 309 306 309 308 307 311 310 314 324 333 4 341 293 266 91 89 91 281 213 201 203 195 187 186 193 207 206 213 223 216 214 217 233 239 213 217 234 218 197 13 40 86 343 64 107 136 138 141 147 156 155 148 142 138 141 145 143 145 142 132 139 144 143 143 143 144 146 147 149 152
352 350 347 345 343 338 335 331 330 327 326 325 323 319 317 316 314 309 307 304 306 307 309 310 309 317 322 335 345 295 275 270 70 86 36 335 201 188 193 192 182 184 198 207 204 212 220 215 214 215 229 237 224 220 223 212 195 37 36 59 59 86 121 141 149 153 152 159 156 142 136 137 139 135 130 136 131 123 129 134 139 142 144 144 145 148 151 154
354 352 349 347 344 341 338 332 331 328 326 327 323 317 313 313 310 305 302 299 300 306 306 306 308 314 321 320 306 265 255 269 67 79 334 336 190 184 184 184 179 186 202 207 203 207 213 212 213 216 225 231 225 221 215 203 195 128 75 71 85 101 120 142 141 152 153 145 141 133 134 139 136 129 125 125 128 127 123 129 138 140 143 144 145 149 150 154
354 352 351 349 347 342 337 334 332 329 326 325 321 316 309 305 304 300 296 293 296 302 302 310 313 313 332 309 284 248 234 268 69 61 317 273 179 180 174 179 185 194 206 206 203 205 211 213 214 218 223 228 226 216 187 213 221 128 101 113 119 116 124 142 137 145 137 111 125 136 135 133 129 130 130 127 130 128 126 134 140 141 145 147 148 148 150 156
353 352 352 351 349 343 337 335 332 329 326 323 321 317 308 301 298 295 292 291 295 301 306 314 315 332 5 300 278 258 175 56 65 74 320 162 171 174 172 181 191 199 206 205 205 207 211 213 214 225 241 238 229 227 200 228 220 106 124 143 126 123 127 134 135 138 132 119 147 146 132 127 131 128 122 129 135 131 133 140 141 145 147 148 149 148 152 157
353 352 351 351 349 344 338 335 332 329 325 321 323 322 314 304 300 301 296 296 302 303 310 314 326 120 269 272 267 262 81 50 64 104 140 163 165 172 181 187 191 200 206 202 205 209 216 221 216 232 271 261 221 232 223 244 88 107 122 121 115 124 133 136 120 118 136 136 133 141 131 133 141 129 125 139 140 137 140 143 144 147 147 148 149 148 153 155
356 352 350 351 349 345 339 336 332 327 325 322 324 323 315 307 307 308 300 303 309 305 311 307 163 184 270 270 264 282 63 32 47 117 153 162 167 178 189 192 192 203 207 202 206 209 219 232 228 231 260 244 210 222 217 223 89 115 120 118 123 124 134 150 140 127 166 114 76 165 134 137 156 138 142 146 139 144 146 145 147 148 147 149 149 148 156 157
356 352 350 349 348 345 340 337 332 326 326 323 322 320 309 307 309 304 298 300 302 307 314 267 148 212 279 266 256 318 41 11 89 136 158 162 174 184 191 197 196 205 209 205 205 206 219 233 242 239 225 176 213 216 208 189 139 130 132 135 125 119 138 157 154 135 88 86 89 246 142 139 162 135 145 147 140 149 149 147 149 148 148 150 150 150 157 157
355 352 349 347 347 344 341 338 332 328 328 324 323 317 307 309 304 293 295 291 295 309 305 141 146 252 273 266 254 35 16 321 137 152 163 168 178 184 197 204 200 208 214 212 205 204 218 232 248 252 246 225 216 186 287 203 158 149 159 157 135 141 162 154 161 142 99 97 219 255 158 136 138 139 152 151 146 154 151 150 151 148 151 151 151 155 156 156
353 351 347 346 345 343 341 338 333 332 329 327 326 317 312 311 296 284 278 287 321 331 132 130 176 254 262 264 58 78 200 167 163 166 166 173 176 182 195 199 200 208 217 217 207 201 211 229 252 262 251 243 241 179 220 216 166 162 186 180 166 179 171 162 176 157 143 177 197 281 136 138 148 154 159 158 157 158 152 153 155 151 154 153 154 158 155 158
351 349 346 344 343 342 340 337 335 333 331 333 332 323 322 301 271 242 249 260 63 111 114 133 229 250 261 236 114 121 182 178 175 168 165 173 174 178 179 183 196 202 209 211 202 199 206 221 236 252 235 231 260 231 207 204 179 186 201 194 196 193 157 160 177 172 162 166 166 183 126 143 173 162 161 167 166 160 156 159 158 155 156 155 157 159 156 160
349 347 344 342 342 341 337 336 334 333 334 335 333 331 356 134 157 178 239 145 126 125 136 247 229 236 276 283 115 153 189 183 169 162 166 173 173 172 167 173 188 188 194 201 198 197 207 220 224 244 238 212 230 227 199 203 197 200 213 203 192 186 161 158 173 177 162 158 171 190 151 146 205 175 165 174 171 163 164 163 158 158 158 158 159 159 157 161
346 344 344 341 340 339 335 334 333 334 335 335 343 360 105 132 150 141 130 147 154 174 229 268 269 246 269 342 159 188 180 158 154 161 168 172 172 165 165 175 180 176 181 189 196 196 202 216 218 238 240 215 216 217 208 212 204 204 217 214 186 183 177 161 167 169 165 181 182 181 167 154 196 188 171 176 176 170 171 165 160 161 159 161 163 158 159 163
343 343 342 340 339 337 333 332 332 334 333 334 14 55 89 91 105 115 168 161 183 222 239 255 269 264 235 199 196 173 154 146 153 163 164 170 170 162 170 180 175 176 181 181 193 199 194 198 209 221 224 222 222 217 215 213 214 217 216 218 178 185 199 168 158 167 168 187 187 175 175 164 183 196 180 176 179 178 176 168 162 164 161 163 167 160 160 165
341 341 341 338 337 334 331 331 328 328 327 356 52 24 58 120 226 241 226 196 195 231 260 201 214 289 50 161 148 124 140 149 157 165 166 169 167 165 175 180 177 184 187 180 186 195 192 191 205 218 216 215 218 223 226 213 220 231 225 224 188 186 228 169 154 175 171 175 188 182 177 168 184 204 184 172 179 183 177 171 167 166 164 165 169 162 161 167
338 339 339 336 335 332 330 327 322 320 289 196 287 277 248 237 234 207 207 207 223 262 298 208 212 255 278 153 131 119 141 158 170 172 168 168 168 173 176 178 185 193 200 186 175 187 194 201 205 213 218 208 211 226 230 216 236 249 237 230 198 176 221 175 159 176 175 175 185 187 181 164 175 213 197 174 178 185 178 175 174 168 168 169 169 164 164 167
337 338 337 335 334 329 327 321 316 309 254 209 255 261 282 349 338 358 271 226 220 236 258 244 243 265 283 122 132 151 166 175 184 173 167 173 175 178 173 182 191 194 209 192 170 183 195 211 211 208 221 214 210 220 217 219 243 261 246 240 220 172 178 220 176 164 175 196 182 183 186 163 168 202 204 166 186 192 181 177 176 169 169 172 170 166 164 166
336 337 335 335 331 326 326 316 307 300 247 213 247 255 299 8 355 337 327 274 205 193 236 234 240 260 244 231 196 186 186 180 181 169 169 183 188 187 172 187 199 190 205 196 176 187 195 220 215 203 224 225 209 212 217 228 239 252 237 237 244 166 149 229 220 154 169 211 175 174 183 165 171 180 152 120 225 218 192 180 178 171 170 173 173 168 166 166
336 335 334 334 328 324 321 308 302 289 227 215 240 253 303 357 341 318 301 286 226 172 214 209 212 219 194 209 206 201 208 187 178 170 171 191 201 201 182 188 206 198 200 199 191 194 194 217 214 202 221 227 209 209 231 240 242 244 223 224 245 185 161 192 192 147 158 220 167 163 171 166 172 162 157 190 211 277 308 254 193 176 172 176 173 170 169 168
335 333 333 332 326 321 316 308 300 269 223 226 246 263 303 324 319 318 297 278 252 155 184 187 212 219 187 190 181 198 216 184 176 171 172 198 203 199 203 198 207 208 203 203 203 207 208 209 209 207 209 213 218 219 225 236 240 233 215 222 234 160 127 341 156 158 165 200 174 150 151 177 174 159 171 193 210 262 314 313 235 183 175 179 172 172 174 170
335 332 331 329 324 317 312 301 263 238 222 233 249 258 279 297 311 319 303 275 224 137 157 165 210 218 162 161 180 203 226 185 180 171 170 204 207 186 210 208 214 215 202 204 207 214 221 204 199 211 204 203 226 224 220 225 241 235 207 213 171 98 61 342 167 174 170 186 191 174 171 176 172 173 179 181 198 209 205 250 223 185 178 183 173 175 178 173
334 332 329 327 323 314 309 296 228 227 234 239 248 255 269 296 315 312 292 262 179 136 156 165 191 180 154 181 184 210 238 189 165 162 171 206 214 204 216 197 212 226 201 199 213 225 226 197 188 210 205 205 229 229 216 216 242 245 180 179 141 114 117 197 187 196 196 188 185 190 202 150 168 194 189 181 191 197 199 215 205 180 182 186 174 178 182 175
333 331 328 323 319 301 287 326 307 258 253 242 244 298 299 305 313 298 276 245 161 126 148 149 152 160 170 180 181 207 227 144 141 159 179 205 207 219 234 201 198 224 204 194 213 226 215 185 181 213 210 208 224 225 207 208 233 258 111 152 155 140 153 183 195 202 216 205 162 196 227 204 179 193 179 178 184 189 198 206 198 185 189 186 179 182 182 178
333 331 326 321 316 276 254 290 298 268 276 14 314 294 309 303 295 271 264 242 103 118 162 128 112 177 192 175 192 210 128 132 160 161 174 199 201 212 231 216 206 213 204 199 206 212 205 180 179 207 216 215 218 217 206 207 223 216 80 163 172 169 187 199 213 198 167 194 170 209 230 213 174 168 166 177 178 186 198 200 198 197 196 188 185 184 180 179
333 329 322 319 315 280 256 265 274 269 295 339 294 296 303 281 273 253 259 354 113 180 153 109 139 190 191 176 205 219 156 181 201 154 163 192 210 229 245 230 219 216 205 210 215 194 184 185 196 207 217 219 215 219 208 204 226 272 58 244 232 229 228 219 234 220 186 214 216 205 210 212 169 153 174 190 183 189 194 196 200 202 204 195 187 184 181 180
332 326 320 315 306 293 265 244 248 258 280 295 288 296 285 267 255 249 256 96 151 156 145 167 169 174 177 180 197 211 206 199 160 153 169 185 200 224 264 254 222 218 197 215 233 203 169 189 219 219 223 219 220 231 212 196 239 298 360 246 232 226 238 235 243 238 219 235 221 197 197 210 207 162 188 194 176 181 174 183 200 205 220 206 190 186 181 179
331 322 313 295 246 238 250 233 237 246 256 277 285 281 272 255 246 257 14 78 152 140 162 186 161 159 178 188 181 192 207 172 136 171 180 179 189 198 226 225 205 205 188 213 236 216 178 186 209 231 235 225 225 234 213 177 236 263 247 233 223 210 227 241 237 228 235 243 221 187 185 213 236 170 190 189 171 180 174 183 191 192 219 211 191 188 182 178
328 316 302 282 252 239 245 272 336 279 251 273 281 270 262 248 250 280 85 164 209 171 182 169 155 174 188 195 182 182 200 169 160 192 184 181 189 186 208 208 184 196 192 199 217 206 188 198 209 221 228 232 237 229 200 174 222 242 227 205 212 208 204 220 221 219 232 217 176 178 169 213 250 123 166 181 182 189 186 188 184 179 195 201 191 189 184 181
323 309 294 276 260 247 250 271 289 277 266 272 271 262 257 258 279 33 102 173 152 167 190 135 163 185 192 200 185 173 187 171 174 194 190 193 193 185 205 207 195 213 213 195 201 195 190 199 204 210 208 214 238 232 192 182 207 223 219 198 208 212 208 223 213 216 230 164 141 171 185 208 177 116 159 174 178 189 189 187 180 176 182 185 190 192 186 184
318 301 287 271 260 252 249 256 262 267 268 262 256 254 262 272 63 65 247 88 93 144 129 138 181 180 190 202 175 179 187 167 181 201 195 196 203 188 194 203 201 215 231 206 206 202 204 202 192 202 197 187 212 234 233 215 200 212 223 208 211 225 233 248 226 224 244 187 136 143 197 232 182 115 151 163 167 178 184 180 171 173 175 176 190 195 189 186
315 290 271 258 258 256 251 251 251 253 259 257 253 258 269 315 57 30 20 63 116 159 132 190 196 164 186 186 173 199 215 176 190 206 202 202 218 194 181 204 207 209 214 206 214 211 217 225 188 189 196 184 199 223 244 252 216 201 218 215 215 230 237 263 275 275 265 232 150 139 140 311 133 96 133 152 166 169 171 172 167 173 177 179 190 191 192 192
296 246 231 233 242 248 245 246 240 234 245 253 258 263 281 18 18 12 28 15 294 145 145 196 189 173 193 176 179 199 214 219 194 193 203 209 224 208 187 198 205 218 233 222 220 210 215 226 169 175 196 193 196 211 224 246 244 190 207 217 217 233 243 264 277 261 168 222 209 153 120 70 126 96 142 154 167 169 169 172 172 178 179 181 186 181 190 200
234 209 221 222 213 213 215 224 222 222 239 259 271 293 22 46 6 17 45 326 327 339 193 193 174 203 203 171 193 196 188 203 196 187 197 200 209 210 202 194 187 212 237 252 263 232 230 232 155 166 203 200 196 210 213 232 253 232 206 210 210 228 248 265 273 254 220 236 216 159 162 181 173 173 171 170 174 177 180 175 174 181 178 179 186 184 191 197
263 236 238 209 175 205 203 205 218 225 247 262 260 290 334 56 37 20 13 320 314 272 248 224 156 230 224 177 182 196 189 184 184 189 189 185 193 200 207 198 178 207 237 259 267 236 239 244 163 168 206 197 187 210 213 219 240 253 251 219 214 223 235 230 240 266 256 255 224 160 161 187 224 179 169 178 183 181 179 173 176 183 178 177 184 189 195 194
262 243 220 148 148 196 184 193 226 238 252 254 232 213 327 50 72 48 8 330 294 283 283 312 116 240 256 205 172 188 196 184 184 195 186 176 173 187 216 206 172 199 239 255 257 238 233 244 169 170 200 190 181 206 214 205 219 241 255 236 221 223 236 237 237 264 267 271 254 177 159 168 266 201 172 177 183 183 179 177 181 184 181 179 180 186 193 188
239 242 156 129 144 171 175 209 239 246 250 265 301 140 146 18 84 84 32 335 319 315 308 319 315 244 255 240 194 182 192 207 212 205 180 174 169 183 212 214 187 187 208 235 251 253 227 238 218 179 191 193 191 203 214 205 197 217 232 224 215 214 228 248 252 249 259 275 269 226 161 117 21 290 199 172 171 180 181 182 184 181 180 180 176 182 187 183
237 246 136 136 152 166 208 238 241 247 243 239 277 122 86 330 312 103 101 285 306 326 304 311 306 277 257 240 196 163 190 221 212 167 147 195 204 194 186 210 226 200 187 216 240 238 220 236 240 196 185 201 202 194 213 225 210 203 215 222 223 219 218 230 240 239 248 264 269 244 159 213 100 52 286 207 172 182 177 175 180 175 176 178 173 179 182 177
250 243 129 142 163 190 248 257 239 252 255 140 342 43 81 285 291 348 151 246 265 194 260 292 294 291 293 278 201 186 207 225 191 131 156 215 221 124 128 177 244 244 213 210 220 217 220 254 258 234 207 210 204 191 205 229 232 216 212 220 225 225 224 228 235 239 244 254 264 258 136 154 93 139 188 179 169 178 174 173 174 168 174 176 173 180 178 169
235 194 129 151 188 227 255 259 232 235 234 83 249 170 124 263 291 337 338 332 331 261 264 300 307 309 305 282 239 219 202 218 227 114 154 213 76 77 112 185 226 240 234 219 209 193 192 252 260 260 246 205 200 199 199 215 231 226 213 217 224 226 223 226 235 250 260 260 257 247 187 122 149 201 167 141 148 157 165 167 151 138 161 171 167 172 169 165
244 208 140 163 196 234 250 257 248 228 158 205 223 177 167 308 342 344 350 10 342 318 334 329 331 321 289 265 263 252 200 197 246 139 159 192 152 96 147 192 230 233 223 300 298 178 182 233 231 242 251 197 184 192 189 200 224 237 225 217 221 228 227 224 230 238 249 264 268 260 228 109 149 177 152 143 151 147 152 152 124 119 153 163 159 164 163 168
262 234 161 163 188 225 250 282 296 273 173 219 244 205 196 184 27 335 332 7 346 327 335 334 341 309 278 275 268 260 245 229 224 183 178 178 151 157 192 185 256 260 26 23 338 282 233 242 227 226 234 206 184 190 194 200 210 230 240 228 217 225 230 227 224 225 234 262 280 281 308 106 142 163 159 167 163 144 147 142 122 129 164 165 162 166 163 168
256 222 198 168 184 217 242 260 271 269 241 227 240 256 264 221 119 359 317 352 353 336 337 337 322 288 273 272 250 224 212 236 233 192 207 191 158 163 181 196 242 320 39 19 304 268 249 244 246 249 248 247 269 306 278 241 212 208 230 237 227 224 229 232 229 221 227 244 255 250 167 145 159 169 171 179 164 146 149 140 127 136 157 155 155 157 160 171
252 240 219 195 197 211 220 218 226 240 248 243 228 243 278 269 145 128 330 351 352 338 344 343 300 278 259 250 247 220 202 236 260 232 224 215 171 154 166 214 224 117 79 271 237 246 259 241 241 250 253 259 269 273 276 267 233 208 212 225 232 228 224 229 231 218 218 233 236 217 141 155 166 172 173 175 167 156 151 138 130 139 149 142 136 140 155 168
243 252 187 197 245 222 214 208 216 228 209 184 219 234 257 269 234 123 302 191 340 332 334 325 276 274 272 263 260 233 201 232 245 245 250 248 230 188 176 208 202 146 174 221 198 219 259 246 236 239 239 245 250 247 254 264 246 222 212 215 226 231 226 232 236 219 211 234 240 67 66 158 168 167 163 159 164 157 139 128 130 137 142 138 135 140 153 160
248 255 154 184 241 257 304 61 234 241 223 189 232 227 245 269 254 169 313 326 324 341 339 326 332 325 303 268 277 284 226 240 243 259 272 260 255 245 208 208 206 179 212 219 185 198 271 262 246 246 241 238 241 239 238 246 246 235 222 212 214 222 220 226 236 220 205 230 235 132 104 68 99 146 151 147 149 139 127 135 141 132 125 126 133 140 145 146
290 327 21 221 238 258 231 197 228 232 173 152 239 204 242 270 220 153 359 340 317 334 337 310 12 9 7 55 247 261 130 231 258 256 235 242 256 258 246 242 266 272 265 240 185 179 260 258 241 250 257 240 234 235 230 232 240 239 231 224 233 240 224 214 222 222 207 218 225 149 122 100 73 114 131 131 134 135 137 144 136 121 122 126 125 123 120 117
322 327 335 270 259 243 227 210 218 223 182 181 204 182 209 231 156 159 89 15 335 335 333 299 94 29 348 60 70 26 78 218 264 275 222 236 247 226 226 256 266 274 285 283 235 210 237 251 232 237 257 242 230 236 230 225 234 235 229 297 317 290 261 227 224 253 240 216 213 203 147 125 121 124 131 135 139 143 145 140 128 122 124 122 114 109 105 104
325 269 246 273 250 220 236 216 200 219 194 109 120 166 207 165 131 182 8 8 318 344 344 313 297 252 242 105 70 18 10 331 295 336 271 250 235 206 216 245 256 272 291 290 268 235 240 262 255 243 259 248 236 243 241 229 226 217 135 12 327 303 292 272 245 357 337 285 235 232 139 127 135 133 141 152 150 145 142 134 130 128 117 104 99 102 106 107
Height
808 807 806 805 804 803 802 801 800 799 798 798 797 796 796 795 794 793 792 791 791 790 789 788 787 787 786 785 784 784 783 783 782 781 778 774 772 772 772 772 772 774 775 776 776 775 773 773 771 770 770 768 769 765 761 759 760 769 779 792 795 787 791 797 794 791 792 792 792 787 781 788 792 786 779 776 781 785 786 783 780 779 778 782 789 795 800 805
808 807 805 804 804 802 801 800 799 798 798 797 796 796 795 794 793 792 792 791 790 789 789 788 787 786 785 785 784 783 783 782 781 776 771 770 771 771 770 771 772 773 774 775 774 772 772 772 769 769 769 769 767 763 766 762 762 776 782 793 797 788 788 787 786 789 790 791 791 784 782 787 787 784 778 783 792 788 791 789 783 786 786 788 792 797 802 805
808 807 805 804 803 802 801 800 799 798 797 797 796 795 794 794 793 792 791 790 790 789 788 787 787 786 785 785 784 783 783 781 777 770 765 767 769 769 769 770 771 772 773 773 772 771 770 768 767 768 770 770 765 763 769 766 767 773 779 799 798 786 790 785 781 785 784 784 787 783 779 784 782 778 779 785 792 790 793 792 790 795 795 795 795 798 803 805
808 807 805 804 803 802 801 800 799 798 797 796 795 794 794 793 792 791 790 790 789 788 788 787 786 785 785 784 784 783 783 781 772 764 763 765 767 768 769 769 770 772 772 772 772 771 768 767 766 767 771 771 764 763 768 766 768 772 782 800 793 782 790 786 781 783 779 779 784 783 780 785 780 776 780 785 793 795 792 789 789 794 794 796 797 798 802 805
808 806 805 804 803 802 801 800 798 797 797 796 795 794 793 792 792 791 790 789 788 788 787 787 786 785 785 784 784 783 784 782 768 761 765 765 765 767 767 769 770 771 772 772 771 770 768 766 766 769 772 771 766 767 769 761 761 779 791 792 784 782 789 787 781 779 779 780 780 782 784 785 780 780 782 785 795 795 786 783 784 787 790 792 795 798 802 805
807 806 805 804 802 801 800 799 798 797 796 795 794 793 792 792 790 790 789 788 788 787 787 786 785 785 784 784 784 784 785 778 764 762 766 764 765 766 767 769 769 772 772 772 769 769 769 766 769 774 773 771 769 769 768 758 758 786 796 784 780 780 783 784 779 777 778 784 784 780 781 780 783 788 783 784 791 785 776 777 780 784 788 790 793 797 801 805
807 806 804 803 802 801 800 799 798 796 795 794 794 792 792 791 790 790 788 788 787 787 786 785 785 784 784 784 784 784 781 771 760 763 765 763 766 765 767 769 770 772 771 770 768 768 769 770 773 772 773 772 770 767 765 760 759 781 793 785 781 779 779 778 776 778 776 780 781 775 778 782 788 792 786 787 785 778 775 776 780 784 787 791 795 797 801 804
807 806 804 803 801 800 799 798 797 796 795 793 793 792 791 790 789 789 787 787 786 786 786 785 785 784 784 784 783 779 774 765 761 764 764 764 766 766 769 770 771 772 769 769 766 767 768 771 772 768 772 771 766 765 763 765 766 775 788 785 780 779 779 776 777 784 781 777 775 775 783 786 786 787 788 789 783 778 777 778 781 785 789 792 796 798 801 804
807 806 804 803 801 800 798 797 796 795 794 793 792 791 790 789 788 788 787 786 786 786 785 785 785 784 785 784 781 776 768 763 763 764 764 765 766 767 769 769 771 770 768 768 765 766 768 770 769 763 768 766 764 766 762 771 775 773 781 779 777 781 780 779 779 782 784 779 776 781 789 788 782 784 792 790 782 780 779 782 785 787 792 794 796 799 801 803
807 805 804 803 801 800 798 797 796 794 793 792 791 790 789 788 787 787 787 786 786 786 785 785 785 784 785 783 781 776 765 762 765 764 765 766 767 769 769 769 770 769 767 766 765 765 765 765 762 757 762 764 764 766 763 770 770 768 777 777 777 783 781 783 784 783 784 783 784 789 793 790 782 788 801 792 780 781 782 786 787 789 794 795 797 799 801 804
807 805 804 802 801 800 798 796 795 793 792 791 790 790 789 788 787 787 786 786 786 785 785 784 784 785 785 782 780 774 764 763 765 764 766 767 768 769 769 769 769 768 766 765 765 764 763 762 757 757 766 766 765 768 764 761 761 766 779 783 781 783 785 786 789 789 789 790 792 793 794 793 787 793 801 790 782 784 786 790 790 792 795 795 798 800 802 804
807 805 803 802 801 799 798 796 794 793 791 790 789 788 788 787 787 786 786 786 785 785 785 784 784 785 784 781 775 769 764 766 766 765 767 767 769 769 768 769 768 768 765 763 764 763 764 761 758 764 766 763 769 774 765 754 758 769 777 788 790 789 791 790 791 792 795 800 797 795 802 804 798 798 795 786 785 785 788 792 792 794 795 796 799 801 803 804
807 805 803 802 800 798 797 795 794 793 791 790 789 787 787 787 786 786 786 786 785 785 785 784 784 785 786 778 767 764 766 766 766 766 767 767 768 768 768 769 768 767 765 763 763 763 765 763 762 763 758 762 771 768 761 754 761 772 775 785 795 800 801 794 793 795 800 805 798 800 818 821 809 800 793 786 786 788 791 794 793 795 795 797 799 801 804 805
807 805 803 801 800 798 796 795 794 792 790 789 788 787 786 786 786 786 785 785 785 785 785 785 785 785 785 774 763 765 766 766 767 766 766 767 767 768 768 768 768 767 765 764 764 764 766 764 764 763 758 761 764 759 763 764 766 778 782 783 789 802 806 795 791 797 803 804 796 802 823 828 814 801 793 788 786 789 794 795 794 795 796 797 800 802 804 805
807 805 803 801 799 798 796 794 793 791 790 789 787 787 786 786 786 785 786 785 785 786 785 785 785 784 780 769 762 765 766 765 766 765 766 766 766 767 767 768 768 767 766 765 765 765 766 766 767 770 764 758 761 766 775 775 774 781 791 796 791 793 800 796 790 793 801 802 796 804 823 828 816 802 794 789 787 790 795 796 794 795 797 798 799 801 804 805
806 805 803 801 799 797 796 794 792 791 790 788 787 787 786 786 785 785 786 785 785 786 785 785 783 783 780 768 763 765 765 763 764 765 766 765 765 766 766 768 767 767 768 765 765 765 765 767 767 767 764 763 769 774 779 783 783 780 785 797 795 792 800 799 794 793 796 801 801 808 823 830 818 803 795 789 789 792 795 795 794 796 797 798 800 800 803 806
806 805 802 801 799 797 795 793 792 791 789 789 788 787 786 786 785 785 785 785 786 785 785 784 780 781 777 766 764 765 761 760 763 765 765 764 765 765 766 768 767 767 767 766 767 766 766 768 769 768 764 766 768 770 785 796 793 785 780 784 785 789 799 803 802 799 798 802 805 808 818 823 814 803 799 794 791 794 795 794 795 796 797 798 798 800 803 805
806 804 802 800 798 796 795 793 792 790 790 789 788 788 787 787 786 786 785 785 786 786 786 783 781 783 776 765 763 762 758 761 763 764 765 765 764 765 766 766 766 767 769 771 770 768 769 769 771 775 772 770 767 768 786 794 788 787 783 783 786 786 791 800 804 799 799 803 805 809 816 818 814 807 802 796 793 795 795 793 794 795 796 798 798 799 803 805
805 803 801 800 797 796 794 793 792 790 790 789 789 788 788 788 787 786 785 785 785 783 782 779 777 779 774 763 759 757 758 762 763 764 764 764 765 765 765 765 766 768 774 777 775 770 770 773 776 781 779 776 771 765 769 773 772 776 775 778 789 791 788 793 797 790 791 804 807 805 809 814 817 810 800 795 793 796 795 793 794 795 796 798 798 799 802 804
805 803 801 799 797 795 793 792 791 790 790 790 790 789 787 785 783 782 781 780 777 772 770 769 767 767 765 759 757 760 762 763 763 763 763 764 764 764 765 766 768 772 774 775 776 768 768 780 783 781 775 768 765 759 756 760 762 765 768 770 777 791 793 788 794 789 784 801 808 800 800 806 814 812 799 793 794 795 796 796 795 796 798 798 799 800 802 803
804 802 800 798 796 794 793 792 790 790 790 789 791 789 781 776 778 779 775 772 766 763 764 762 760 761 760 756 756 759 762 764 762 760 763 763 762 767 768 768 774 779 772 768 771 766 769 782 779 769 763 757 756 754 754 761 763 763 768 769 770 785 795 788 789 789 783 796 802 796 799 805 810 813 805 799 801 799 795 796 797 797 798 799 799 801 802 801
803 801 799 797 795 793 792 791 790 790 789 790 790 785 775 772 776 775 773 771 762 758 761 760 760 761 759 758 758 757 761 766 765 761 762 762 762 768 769 770 776 778 768 764 770 774 780 781 768 759 755 751 751 751 756 763 763 764 768 772 772 778 796 804 794 784 784 794 797 794 802 809 809 811 811 808 809 804 795 794 795 796 799 800 800 801 801 802
802 800 798 797 794 793 792 790 790 789 788 789 786 781 774 774 775 772 773 775 765 758 759 760 762 761 760 760 758 759 762 764 767 764 760 762 764 763 767 772 773 771 767 767 772 780 785 775 758 753 753 753 755 756 763 766 763 764 767 774 776 774 790 809 803 792 791 793 794 797 805 813 813 812 812 808 808 809 804 800 794 793 797 798 797 798 800 803
801 799 797 795 793 792 791 790 790 787 787 787 783 779 776 775 775 774 773 772 766 758 756 757 758 757 758 757 756 760 760 757 761 762 759 762 763 761 765 768 770 771 768 765 767 773 775 762 749 751 755 758 764 766 768 772 769 762 761 768 774 777 783 791 793 795 798 795 793 802 816 822 817 818 817 809 809 813 810 808 802 794 795 795 795 797 798 800
799 798 796 794 793 791 790 790 788 785 785 784 781 778 776 776 775 774 776 775 769 762 757 757 758 755 753 754 756 755 754 754 755 756 756 758 759 763 765 762 766 772 767 764 767 770 765 750 746 756 759 761 769 770 766 770 771 761 755 756 765 780 787 787 786 790 805 811 798 801 827 835 821 818 820 814 815 816 812 813 808 799 796 796 798 799 798 798
798 796 794 793 792 790 791 788 784 784 783 779 777 776 776 777 775 775 778 779 774 765 761 761 761 758 754 756 755 752 759 758 749 749 754 756 753 757 766 763 762 766 761 761 765 764 756 745 747 758 761 765 772 769 760 762 770 763 750 745 758 780 789 792 792 794 809 815 796 790 814 835 831 822 818 815 818 818 813 813 807 799 799 798 798 800 798 798
797 794 793 792 790 791 790 785 783 783 780 776 775 775 776 775 775 776 780 786 779 765 762 762 760 758 755 754 750 756 770 760 748 752 753 755 752 752 764 765 762 763 754 760 773 765 752 752 758 761 765 770 773 769 757 756 767 764 749 746 757 774 786 791 792 794 800 798 794 790 795 819 832 823 814 814 819 819 815 812 806 801 801 798 798 798 797 798
794 792 791 790 789 790 788 787 785 781 776 775 775 776 776 775 776 775 786 799 783 759 758 759 756 755 751 750 749 755 762 755 758 761 749 751 754 753 765 763 761 762 750 762 780 762 748 758 765 766 771 772 767 761 751 752 763 759 750 752 756 763 772 775 778 786 790 796 810 805 791 809 824 816 814 815 818 822 818 812 808 804 802 799 797 796 795 796
793 791 789 789 789 788 787 788 786 780 777 777 777 777 775 775 775 776 791 800 777 755 757 757 757 756 752 754 754 752 752 753 760 757 747 752 752 752 762 757 754 759 752 757 767 755 747 754 757 761 770 767 759 753 746 752 760 750 749 756 757 759 762 766 773 779 785 801 817 810 793 804 818 815 818 821 819 819 817 811 808 806 803 800 796 795 795 795
790 789 788 788 788 787 787 786 783 780 779 778 778 777 774 775 778 790 803 792 768 758 757 757 758 757 756 762 762 757 754 753 753 752 752 755 753 752 753 748 749 757 758 757 757 751 746 747 750 756 760 756 753 748 742 747 752 749 755 761 762 764 764 769 770 771 791 806 802 793 784 793 815 820 814 814 811 808 811 813 810 809 807 802 796 794 794 795
788 787 786 786 786 787 786 782 779 779 780 779 778 775 775 778 781 797 800 773 759 763 759 758 759 755 758 764 764 760 756 754 754 757 761 759 758 761 759 756 756 762 769 768 760 752 750 755 758 755 750 748 752 751 742 744 750 755 761 767 777 780 778 784 780 780 806 813 789 776 778 787 808 818 808 803 801 797 802 809 810 812 812 805 797 793 793 794
786 785 784 784 784 784 783 779 778 780 779 779 778 774 778 788 786 786 778 763 767 769 756 756 758 755 757 758 759 759 756 757 757 758 761 762 764 764 763 763 762 772 782 777 767 761 759 762 761 757 750 747 757 759 751 752 758 762 765 775 794 801 804 810 803 795 804 804 786 777 788 797 798 799 799 799 797 794 795 798 801 808 812 805 797 793 792 793
784 783 782 782 782 781 780 779 778 780 779 778 778 773 780 795 790 773 763 762 770 762 748 750 753 752 756 758 759 756 755 760 759 757 757 757 762 763 760 756 755 768 777 771 769 770 772 767 759 761 758 750 758 763 762 765 767 769 769 780 800 811 825 828 809 800 798 793 789 784 793 806 798 789 791 793 793 790 788 790 793 797 800 800 795 792 792 792
782 782 781 780 780 779 779 779 778 778 778 777 777 779 788 793 780 765 759 759 759 754 751 753 752 753 758 761 761 755 758 764 758 757 759 757 762 763 760 757 752 756 763 766 766 766 780 780 763 762 760 753 759 758 756 758 762 766 759 768 790 799 816 823 806 805 801 786 791 800 805 810 807 796 786 784 788 786 785 787 788 791 792 794 794 791 791 792
781 781 780 779 779 777 776 777 777 777 778 776 776 784 792 786 770 763 761 756 754 753 754 753 753 761 764 761 760 753 757 765 759 758 762 761 761 759 759 758 749 747 757 770 767 757 771 771 748 747 749 749 759 754 746 753 761 759 751 764 782 777 785 796 786 787 793 789 796 811 814 805 800 795 782 781 786 783 786 788 789 793 792 792 795 792 792 793
780 780 779 778 777 776 776 776 776 777 776 775 781 785 781 773 766 764 761 756 753 752 756 758 757 767 770 763 763 757 754 760 759 761 764 762 760 757 757 755 748 748 753 762 763 756 765 761 737 742 748 743 753 752 746 755 759 755 758 768 767 755 762 783 784 776 784 804 807 807 817 810 800 799 787 784 790 785 787 790 790 793 792 793 796 795 795 795
779 778 777 775 774 775 775 775 775 777 774 776 784 780 768 763 760 757 756 755 752 748 755 763 761 764 768 767 766 762 757 759 759 762 767 766 764 759 756 752 748 750 748 753 760 754 758 760 741 746 758 745 741 747 746 746 747 754 764 760 752 753 757 773 795 791 785 802 803 799 814 815 809 810 797 788 794 792 789 790 792 794 792 794 796 796 797 795
778 776 773 771 773 774 773 775 775 773 773 778 783 774 762 761 757 753 753 753 753 751 754 761 761 758 760 764 766 760 757 761 761 763 767 769 767 757 755 754 750 748 744 750 763 755 754 765 752 745 756 747 738 750 757 749 741 747 752 745 753 776 778 774 791 799 793 797 799 798 807 808 804 804 796 792 793 790 788 789 793 794 793 794 795 796 796 794
778 775 772 769 772 773 772 775 773 770 774 778 778 771 763 759 756 753 753 752 753 756 757 757 756 756 754 755 760 758 757 761 762 760 764 769 770 759 753 755 755 754 749 751 761 754 750 767 766 748 744 746 746 756 766 760 749 746 747 746 752 768 777 773 775 782 787 793 795 797 806 811 803 792 787 788 786 785 787 788 790 791 790 791 793 794 795 794
773 772 772 769 770 773 772 773 771 772 775 773 770 767 762 759 755 751 752 753 754 758 761 758 756 758 756 751 753 755 756 760 758 757 761 764 769 765 754 751 755 756 754 754 757 754 751 764 771 755 743 750 757 756 756 756 755 756 760 761 760 760 763 769 769 766 771 784 790 797 813 816 799 786 784 783 780 781 782 783 784 786 788 789 790 791 793 794
769 772 772 768 770 771 770 773 772 770 770 768 765 763 762 760 755 752 752 751 752 754 755 757 757 757 755 752 753 754 757 759 754 758 765 763 765 766 755 750 753 753 756 760 760 757 757 760 763 758 753 757 755 744 740 742 742 750 758 759 760 760 763 779 786 768 759 771 775 787 818 819 791 786 792 785 781 780 778 780 783 784 787 788 788 789 790 792
770 774 771 767 770 770 770 775 772 764 765 766 763 761 762 761 756 753 752 749 751 752 751 754 757 756 754 755 755 755 757 758 755 760 769 764 758 760 755 752 753 751 755 763 759 751 753 757 760 759 752 749 742 733 734 736 732 736 745 747 749 753 759 780 792 775 762 765 758 766 804 810 784 781 790 786 785 784 781 783 786 787 787 787 787 788 788 790
770 770 767 767 768 767 772 778 772 765 765 764 761 759 760 760 756 754 753 753 754 754 754 757 757 758 758 757 757 756 756 759 759 761 768 767 759 757 756 755 756 755 755 759 753 746 752 763 768 764 751 740 735 730 729 731 734 739 741 739 744 748 750 759 767 765 768 771 764 772 799 805 785 776 777 776 778 780 780 779 783 789 788 785 787 789 789 791
764 763 763 766 767 766 772 777 772 769 768 764 762 762 760 759 758 758 759 759 758 756 759 761 759 760 759 757 758 756 755 764 767 760 763 768 763 758 756 755 757 755 754 756 754 750 760 768 770 776 775 762 754 751 746 742 742 745 742 738 740 741 742 747 750 759 773 772 766 777 796 798 785 776 776 775 773 775 776 775 781 790 790 787 789 790 791 794
765 765 762 761 764 766 768 768 767 769 770 768 768 767 764 763 762 761 761 761 759 758 761 762 759 759 758 757 761 758 757 764 767 761 761 764 763 760 757 757 757 753 751 757 757 754 763 768 767 778 786 778 771 769 763 754 750 749 744 739 738 739 741 747 752 767 781 774 767 779 793 793 784 779 779 777 774 777 777 776 782 788 787 787 789 790 792 794
769 772 769 764 761 762 763 760 762 768 769 770 773 770 768 769 765 761 761 763 761 759 761 762 759 760 762 763 767 766 762 761 762 763 763 762 762 760 757 757 756 755 758 762 760 758 765 768 765 769 773 768 768 765 753 746 749 754 751 743 740 739 738 742 755 771 776 771 773 780 786 792 792 787 786 780 776 780 781 779 784 788 787 786 788 791 793 795
771 773 771 769 767 765 764 761 762 766 766 769 774 773 770 771 768 765 763 764 763 760 762 763 762 765 769 768 770 770 767 764 764 765 764 762 760 757 757 757 755 758 763 763 759 762 771 773 767 766 766 761 760 757 747 743 744 747 749 748 742 738 738 744 755 760 761 771 782 776 774 787 791 784 784 782 778 781 782 782 785 786 786 786 788 792 795 796
770 769 763 765 771 770 767 764 762 763 764 767 771 772 772 772 772 772 769 764 763 762 766 770 767 766 767 768 770 772 772 773 773 770 768 767 764 761 761 758 754 756 761 760 756 761 773 775 766 762 763 758 752 750 747 746 742 738 740 744 742 739 742 747 749 747 753 770 778 773 777 788 784 776 777 779 779 781 783 784 786 785 784 785 789 794 796 796
767 766 761 761 767 767 764 764 764 764 765 768 770 771 773 774 774 773 769 768 769 766 768 776 773 766 764 765 770 775 778 781 782 778 774 773 770 767 767 764 758 753 754 756 756 760 771 774 765 761 762 756 750 747 745 745 744 739 735 736 738 739 741 746 745 742 750 760 761 766 780 785 779 774 774 774 776 780 783 785 786 787 787 787 789 793 795 796
771 772 770 768 767 764 763 764 764 766 768 771 774 772 771 774 775 772 768 771 778 773 769 775 774 768 766 767 771 776 776 778 781 778 775 776 775 771 771 772 767 759 754 755 757 761 772 776 766 762 766 760 750 747 745 745 747 744 737 734 736 739 737 739 741 740 747 756 757 763 778 784 778 773 772 774 779 783 786 788 788 789 790 791 791 793 795 796
774 774 774 777 776 769 765 764 764 768 771 772 774 773 772 774 773 772 770 768 772 774 771 772 773 770 770 770 773 775 770 769 773 770 767 771 772 770 770 769 768 767 764 761 762 764 771 774 765 765 775 769 754 750 748 744 745 748 749 750 752 751 744 739 740 743 747 755 761 765 777 786 781 776 778 782 785 788 790 791 791 791 791 793 795 796 798 801
777 774 771 777 781 774 767 765 765 770 772 769 770 771 772 772 768 770 777 772 766 768 769 768 771 772 774 776 776 773 768 765 765 763 761 762 761 762 765 763 762 767 768 766 768 767 768 772 769 771 783 777 759 754 752 750 760 767 765 763 761 758 754 749 750 754 754 757 763 766 773 780 779 779 787 790 790 791 792 791 791 793 794 796 798 800 803 804